Theta_e
314 313 321 315 318 314 319 322 323 324 326 332 348 351 347 346 349 355 340 339 349 356 350 345 349 340 339 322 322 324 324 324 326 331 334 334 335 336 335 334 332 326 324 324 323 324 324 329 332
311 313 322 310 315 316 316 319 322 323 324 334 347 348 347 348 355 348 343 339 356 354 348 344 349 341 341 323 323 324 323 324 326 330 332 333 334 333 333 334 332 325 325 325 325 328 332 334 336
313 319 321 312 309 312 313 317 319 322 325 336 354 350 352 350 354 347 348 346 356 352 347 343 348 343 342 324 324 325 324 325 326 327 329 331 332 334 336 333 328 325 326 327 328 330 332 334 334
317 313 313 315 311 311 314 315 315 318 318 321 349 357 353 350 352 350 350 358 356 351 346 343 346 345 343 326 325 327 325 325 327 328 331 333 335 336 335 328 326 329 331 332 332 332 333 333 333
318 312 315 312 312 310 312 313 313 315 316 317 320 359 356 347 347 350 357 356 354 350 350 342 344 346 344 328 326 328 327 328 329 329 330 332 334 334 328 329 330 332 334 334 333 334 332 329 327
317 313 317 315 315 313 312 312 312 313 314 316 351 359 356 349 357 356 355 355 351 349 353 344 344 346 345 329 326 329 329 329 330 330 331 331 331 328 328 329 332 334 335 332 331 328 325 325 324
314 316 318 318 318 317 315 313 313 313 314 316 351 363 357 356 356 355 355 354 351 349 347 353 347 347 345 329 328 330 331 330 329 329 329 327 327 328 330 330 332 333 331 328 324 324 323 326 334
311 313 319 318 320 318 317 316 315 315 318 319 330 362 362 358 356 354 355 354 351 352 346 352 352 348 343 328 329 332 333 331 328 327 325 326 328 329 331 331 330 328 325 323 323 327 334 342 344
311 312 313 315 318 318 317 316 318 318 318 319 325 356 357 356 353 354 353 353 352 351 351 353 352 348 340 328 331 334 334 330 328 327 325 326 328 327 326 324 324 325 323 323 334 337 341 343 343
309 309 312 314 315 316 317 316 317 317 317 319 338 354 357 354 353 352 351 351 351 352 354 353 353 346 336 331 335 336 334 330 328 327 327 325 324 324 324 329 330 329 327 333 337 336 344 344 345
309 310 311 313 313 314 316 316 316 316 317 318 334 349 357 352 352 351 350 349 349 351 351 352 348 343 335 339 337 337 333 329 328 328 326 325 331 329 339 339 336 332 332 337 340 350 349 347 348
310 310 310 312 312 313 314 314 315 316 316 317 318 326 335 354 351 350 348 347 347 349 350 348 346 343 337 336 338 337 332 329 327 328 326 335 340 341 341 340 338 337 336 339 349 351 350 348 347
313 312 311 310 309 310 312 313 314 314 316 317 318 324 344 354 350 348 347 346 344 345 346 345 345 343 339 338 338 336 330 327 326 328 333 339 342 344 341 338 340 341 344 346 351 351 349 347 346
312 313 313 311 309 308 310 311 312 314 315 317 318 318 323 346 350 347 345 344 342 342 342 342 341 341 339 337 336 333 328 326 330 332 337 340 344 343 340 340 337 339 344 345 350 349 348 343 341
313 313 312 313 311 310 310 311 312 314 317 317 317 317 322 328 350 347 345 343 342 341 340 341 341 339 337 334 331 327 325 329 339 340 340 344 341 341 341 339 340 347 348 347 350 348 340 339 343
314 312 313 312 312 313 311 311 312 312 314 315 317 318 319 344 348 349 346 344 341 340 339 339 339 339 336 328 327 327 333 341 342 343 342 341 344 341 338 341 348 348 348 348 347 342 337 342 343
310 316 319 319 317 316 313 311 312 312 314 314 315 316 316 325 337 347 349 346 342 340 339 339 339 338 336 329 335 337 339 341 343 344 343 342 342 343 338 350 349 347 346 344 343 338 341 343 337
314 317 317 317 318 317 319 318 317 316 312 313 313 315 316 319 332 340 348 347 343 342 340 343 339 338 335 337 341 339 340 342 343 344 344 343 344 344 350 349 346 346 345 343 340 341 341 328 327
316 317 316 315 317 319 318 319 317 315 310 312 313 313 315 317 327 338 344 347 346 343 342 347 339 339 338 339 347 346 349 349 348 346 344 342 343 348 349 348 345 344 342 340 337 337 326 321 324
315 316 316 316 317 320 317 316 315 315 315 311 313 313 315 323 330 328 336 348 348 346 346 350 343 345 345 345 348 349 347 348 347 347 348 349 349 348 346 345 343 341 338 334 330 326 320 319 317
315 315 314 315 314 315 316 316 316 315 314 313 313 314 315 333 331 341 339 335 337 333 336 349 349 350 349 347 347 348 347 347 348 347 347 346 347 346 345 343 340 336 331 326 322 323 320 319 320
314 312 313 312 315 316 315 319 315 315 315 314 313 313 313 342 345 345 343 335 335 330 335 343 349 349 349 347 349 347 346 344 342 343 342 341 343 341 337 335 334 329 321 321 320 320 319 318 320
315 317 316 313 312 311 312 313 314 314 315 314 313 312 313 335 346 347 345 335 337 331 329 339 341 350 350 349 350 347 346 343 341 339 338 335 333 333 331 327 323 318 316 319 319 318 318 319 319
315 314 311 310 309 311 311 311 312 312 313 313 314 313 314 336 342 343 342 341 335 333 332 337 339 335 350 350 349 347 345 339 337 334 333 330 328 325 324 322 320 318 315 316 318 319 320 320 319
316 315 314 310 310 312 315 316 313 311 313 314 314 313 313 333 340 340 337 337 343 344 336 335 332 333 349 352 347 347 346 342 339 333 329 326 323 322 321 319 317 316 315 316 318 320 320 320 318
317 316 318 316 319 318 315 316 315 314 313 313 313 312 312 330 344 340 336 336 343 341 343 334 331 335 350 350 347 346 344 340 334 331 328 326 323 320 318 317 317 318 317 320 320 320 319 319 318
319 317 314 317 318 319 317 316 317 317 318 315 313 313 312 335 348 347 344 341 348 349 349 347 347 345 351 349 345 344 341 337 332 329 327 324 321 319 318 318 319 317 320 321 322 319 318 318 319
317 317 316 315 320 321 322 320 320 318 321 320 320 320 314 330 348 348 348 347 348 350 350 350 349 349 349 347 344 341 338 335 332 329 325 321 319 318 317 318 318 320 321 321 321 319 319 319 319
316 316 314 314 317 322 324 320 317 317 320 320 318 319 319 337 347 348 348 347 349 350 349 349 349 347 345 343 338 338 335 332 329 326 323 320 318 316 316 318 319 320 321 320 319 319 320 319 318
315 316 315 315 314 319 318 318 317 318 320 320 319 319 320 328 347 346 346 345 348 348 347 349 347 343 338 338 337 334 331 329 327 324 320 317 315 315 316 317 320 321 321 321 320 319 319 318 318
Wind_Speed
15 11 8 3 3 4 4 8 3 9 2 3 9 6 7 7 8 5 30 16 25 34 29 28 29 27 24 25 28 27 25 24 24 25 25 22 20 18 16 15 14 13 12 12 10 9 8 7 5
13 6 1 2 4 2 6 4 16 15 6 5 3 6 4 4 8 16 20 26 37 44 35 32 32 29 25 25 26 27 26 24 23 22 21 20 18 16 14 13 12 12 11 10 9 8 6 4 3
8 2 3 4 4 7 6 6 12 3 9 2 3 1 1 4 16 31 16 39 56 48 40 35 33 31 28 26 26 26 25 24 22 21 19 18 16 15 13 12 11 11 10 9 8 6 4 2 1
4 4 3 2 9 7 6 8 9 2 9 4 8 2 6 1 25 28 28 38 39 46 44 39 36 33 29 28 27 26 24 23 21 20 18 16 15 14 12 10 11 11 9 8 6 4 2 1 3
1 3 1 4 7 6 8 9 11 10 7 14 11 7 10 3 18 31 45 43 41 42 38 40 37 34 31 29 28 26 24 22 20 18 17 15 14 13 12 11 10 10 8 5 3 1 2 4 6
3 2 1 7 8 5 8 10 8 9 8 14 4 7 3 23 34 37 40 43 46 44 36 38 35 36 33 29 28 26 24 22 20 18 17 15 14 12 12 11 10 8 6 3 1 3 5 7 9
4 3 4 4 5 6 7 5 6 7 7 14 4 5 1 10 30 29 34 40 41 40 37 30 35 35 34 31 29 26 23 21 20 19 17 16 14 13 12 11 9 7 4 2 2 4 6 8 9
3 3 3 3 2 8 8 5 6 6 17 16 8 9 9 14 36 31 28 33 35 32 36 30 31 34 33 33 30 26 23 21 20 19 18 17 15 13 11 9 7 5 3 1 3 4 6 8 9
3 2 4 5 3 6 18 7 10 11 7 15 12 8 19 29 31 33 26 27 29 29 29 32 33 34 34 33 31 27 24 22 21 19 18 17 15 13 11 9 6 3 2 1 3 5 7 9 12
4 3 7 5 6 13 22 8 15 14 14 13 18 18 42 48 36 32 25 24 28 28 29 32 30 36 34 33 32 28 26 24 22 20 19 17 15 12 10 7 6 3 2 1 4 8 12 12 11
5 6 6 14 13 13 21 17 13 11 8 9 7 2 29 26 26 25 29 30 31 32 32 33 37 37 35 32 32 30 26 25 22 20 19 17 14 13 10 7 5 4 3 3 6 9 10 8 9
4 7 10 14 14 11 16 13 17 10 8 9 8 7 17 28 25 23 25 30 35 33 31 38 38 39 38 35 33 30 28 26 24 22 20 19 15 12 10 7 6 7 6 4 5 6 9 9 8
3 4 8 8 10 12 16 18 15 13 9 10 11 4 15 23 27 36 38 33 36 37 37 40 40 39 38 35 33 31 29 27 24 23 20 18 14 13 11 7 5 5 8 9 6 6 6 8 9
6 10 13 8 10 6 7 11 5 18 8 13 11 6 9 22 25 26 32 31 35 35 38 42 40 39 37 37 33 31 29 26 24 22 19 15 11 9 13 9 5 9 9 7 4 4 6 8 11
8 8 11 6 6 7 5 13 18 7 6 10 11 14 10 18 20 24 40 39 39 38 38 42 41 37 35 35 32 30 29 26 24 21 19 14 11 9 7 8 8 12 8 3 3 3 5 8 9
6 3 5 6 10 9 4 14 26 8 6 18 11 17 5 15 13 16 31 34 36 37 37 37 36 37 34 35 33 32 30 27 23 22 19 17 12 10 8 8 11 8 5 3 4 4 6 8 9
6 3 9 8 11 8 6 13 26 3 7 17 11 11 8 6 5 3 22 28 31 36 40 39 37 39 35 35 32 30 28 26 24 22 19 16 12 9 11 13 12 9 7 6 4 5 4 7 11
6 5 6 11 5 12 14 17 23 15 10 16 14 13 8 4 6 11 27 25 24 26 30 33 41 41 36 33 28 27 23 26 26 25 19 15 14 10 11 13 12 7 7 5 3 5 5 8 13
7 5 10 15 12 1 13 17 20 15 9 14 14 10 8 8 9 20 9 30 23 26 34 35 42 41 38 35 27 29 22 20 22 23 18 15 16 12 12 10 10 6 4 4 4 9 7 13 14
7 8 9 9 14 3 14 22 21 19 13 13 19 12 8 6 5 11 12 26 28 24 17 23 40 39 37 35 31 24 23 24 26 24 21 19 17 15 13 11 9 6 6 8 9 12 13 16 13
6 8 8 10 12 7 10 20 16 18 10 9 15 14 6 9 8 13 13 19 31 28 3 25 38 38 40 37 29 24 28 30 29 25 22 19 16 14 10 9 9 9 9 12 11 10 11 12 15
9 7 10 12 5 8 6 8 13 12 16 7 11 13 10 9 8 10 14 15 28 27 15 30 18 42 41 38 30 31 26 23 22 24 21 18 13 12 10 11 12 12 13 13 13 13 13 14 12
11 12 14 8 5 3 12 4 8 4 12 16 8 12 12 13 14 15 15 26 32 42 64 49 29 25 37 36 30 31 24 29 28 26 22 19 17 16 15 14 14 14 14 14 14 16 18 17 15
9 5 5 4 2 6 11 7 13 5 11 9 8 9 14 11 14 19 20 26 29 38 38 39 40 31 37 36 33 35 35 33 31 26 24 22 20 18 16 15 15 14 15 16 17 18 18 18 19
7 3 4 4 2 5 2 2 16 7 14 16 13 10 11 15 15 16 17 17 26 27 27 31 20 35 33 34 33 34 37 36 32 29 27 25 23 20 18 16 17 17 17 18 18 18 18 18 20
2 6 5 5 2 4 10 6 6 7 17 18 13 10 9 12 18 18 22 21 32 39 30 35 45 46 28 35 35 37 37 34 32 29 28 26 24 20 19 19 19 17 17 19 19 18 18 19 18
1 3 4 2 1 2 4 7 7 12 15 14 14 13 9 12 18 21 21 25 30 34 37 42 41 44 34 37 39 37 36 35 32 29 26 27 24 22 20 19 19 16 18 17 15 17 18 17 17
6 4 2 2 3 4 5 5 2 15 20 22 20 21 15 13 15 17 19 22 30 34 37 36 39 35 36 37 38 38 35 34 34 32 31 28 25 23 21 21 20 18 17 17 18 17 17 18 16
1 2 3 3 3 3 3 4 5 8 10 20 25 26 23 14 15 16 16 24 31 33 29 32 37 39 37 40 37 39 36 37 36 34 30 28 25 23 23 22 21 21 19 18 18 17 16 16 14
3 5 5 3 7 5 3 7 7 12 10 16 22 22 20 19 18 17 17 18 22 25 31 30 32 33 38 43 42 42 39 37 36 32 29 28 26 23 22 22 20 20 19 17 17 18 16 14 11
Wind_Direction
317 313 323 6 72 69 246 248 255 265 286 213 138 147 200 140 165 195 158 246 263 212 180 170 166 159 153 144 140 137 136 138 138 137 137 136 133 129 124 122 121 118 118 116 113 110 109 107 99
328 345 75 78 114 182 257 227 254 243 237 48 241 107 224 160 104 150 166 174 197 185 176 172 167 161 156 148 144 141 140 141 143 142 142 140 138 135 131 129 125 123 121 118 116 115 112 110 110
323 339 96 149 170 196 230 229 250 342 256 174 42 261 68 180 127 160 208 173 175 173 173 171 168 163 157 153 150 143 143 144 146 146 147 144 143 139 138 134 129 127 123 121 121 125 130 126 308
332 22 5 164 223 250 216 273 273 24 314 236 135 291 329 176 160 180 163 159 160 166 170 169 168 164 160 157 153 148 146 147 149 151 152 149 150 146 145 140 135 130 129 130 131 142 152 306 320
197 68 244 246 253 265 262 263 278 286 285 276 305 174 166 284 160 163 153 158 161 164 171 166 167 164 164 160 157 153 152 151 152 154 155 156 155 154 151 146 143 140 142 145 152 212 302 320 323
14 94 77 243 258 270 285 261 280 278 251 280 274 142 189 140 137 150 150 157 163 162 166 164 166 165 165 162 161 158 157 155 155 157 157 157 159 159 155 152 155 155 163 167 250 307 321 331 333
125 85 232 247 272 293 265 298 282 286 277 291 223 148 249 145 141 147 148 153 156 160 160 161 165 167 165 165 164 162 161 160 158 158 159 158 160 162 163 161 167 178 191 228 308 325 336 345 350
122 100 277 275 277 285 272 318 313 326 321 331 257 178 179 159 144 143 144 145 151 152 154 159 165 168 167 167 166 166 166 166 163 161 159 160 163 165 170 173 184 205 224 276 345 357 358 358 353
111 21 274 256 296 270 294 331 321 302 311 325 309 152 139 146 135 131 136 141 146 151 153 162 165 170 170 169 168 169 170 170 166 164 162 164 168 171 176 184 187 179 254 331 13 353 344 336 332
132 160 240 226 272 281 284 303 308 330 340 331 333 133 149 153 151 147 155 157 156 158 158 162 163 169 173 171 172 173 173 173 171 169 167 168 169 174 174 177 194 190 219 312 339 334 330 330 340
221 226 233 266 260 265 280 289 289 287 308 302 355 23 147 151 166 159 157 165 163 162 161 169 170 172 176 177 175 176 178 176 174 174 170 169 168 180 186 195 218 215 230 267 330 32 33 57 55
306 254 241 259 261 263 268 280 277 258 266 266 260 200 268 167 166 161 157 165 161 164 168 173 174 176 180 181 180 179 179 180 177 178 177 175 175 190 201 212 249 256 281 284 54 75 31 45 42
228 305 309 282 275 265 270 268 272 266 265 270 277 172 259 188 175 166 165 165 162 165 170 175 178 180 183 184 184 184 182 182 181 179 176 183 189 212 207 211 260 209 113 113 101 58 14 14 12
309 310 302 299 295 274 285 295 312 272 297 287 282 275 129 251 173 162 157 165 169 167 170 173 178 183 185 187 186 187 185 185 187 183 179 187 197 201 193 178 157 146 126 116 95 40 23 24 20
303 308 315 307 292 281 339 305 279 309 313 296 292 294 110 299 208 172 166 170 170 170 168 172 177 183 186 188 187 188 187 186 187 184 184 182 191 199 161 165 134 124 121 115 75 54 16 12 15
300 317 331 322 317 294 121 276 274 298 299 290 300 301 336 174 225 180 176 171 171 162 168 170 175 182 184 184 186 188 189 187 186 188 190 192 182 177 169 145 129 134 150 125 107 20 6 15 17
11 298 314 323 332 334 332 285 280 304 241 276 282 291 303 98 295 147 162 170 169 167 166 168 177 184 184 184 186 188 191 193 193 198 190 182 171 157 171 141 138 155 136 128 90 43 39 25 27
241 273 261 274 296 333 310 290 289 310 254 263 271 274 288 230 188 267 150 152 159 163 163 166 177 185 186 184 189 194 201 210 206 193 181 170 155 162 144 136 134 139 141 110 87 104 80 59 63
215 234 261 283 272 238 283 286 287 304 270 257 263 262 267 236 175 201 180 151 143 153 170 173 176 184 185 184 183 178 161 171 177 165 166 169 165 164 162 151 141 145 127 92 82 115 104 60 104
213 234 261 276 260 183 308 297 289 289 274 248 258 250 242 247 240 138 174 151 136 137 179 177 180 178 177 179 170 164 154 151 148 143 142 146 151 152 145 153 137 126 112 103 111 126 100 67 65
224 231 255 253 287 225 248 281 276 284 272 272 251 242 178 207 198 135 175 160 138 138 297 252 179 175 174 172 170 153 144 136 133 133 133 131 139 136 148 146 138 122 115 113 112 120 112 102 64
273 233 257 266 272 274 72 289 270 271 277 284 275 244 226 183 174 174 162 158 156 140 186 246 212 177 176 172 172 159 147 132 137 138 134 130 134 136 147 138 131 122 116 114 107 108 111 111 93
285 277 273 238 246 306 273 248 281 200 276 281 271 245 244 177 174 180 185 171 161 170 176 219 223 215 177 172 175 162 144 143 143 137 132 125 125 129 134 130 124 115 115 113 110 110 106 102 108
295 306 305 295 187 250 268 194 269 209 235 271 273 242 242 171 183 187 185 174 166 178 189 188 207 263 185 172 178 171 156 143 141 142 134 132 129 135 133 128 121 116 110 111 114 109 107 105 100
246 89 329 314 347 226 207 329 245 249 245 237 255 271 238 168 184 173 166 172 170 180 174 159 184 243 198 175 175 171 164 159 155 152 147 141 143 143 134 130 122 118 114 108 115 117 111 110 104
223 186 176 228 252 283 299 236 248 253 245 254 261 248 238 171 178 183 173 178 174 174 184 170 174 212 191 174 169 166 166 158 155 156 154 149 150 141 137 130 126 122 118 116 112 114 110 109 105
211 188 220 241 278 279 247 282 292 341 325 281 255 261 249 182 177 187 179 179 172 181 182 185 175 184 172 165 160 161 163 160 157 157 154 152 148 142 138 135 128 126 124 125 126 113 117 109 102
181 155 95 43 244 251 270 296 238 358 355 338 338 340 274 175 183 175 167 180 180 180 170 166 169 156 158 156 156 154 154 163 161 154 155 152 147 144 141 140 133 132 133 132 124 120 115 107 99
165 2 67 151 215 196 293 264 281 15 1 340 330 321 307 173 180 173 170 174 173 168 164 148 145 147 145 147 148 149 155 158 157 156 153 152 149 147 149 145 139 133 137 132 133 126 117 109 96
222 236 167 178 273 218 214 276 323 40 4 348 311 312 325 178 173 169 163 165 158 163 156 151 148 144 144 147 150 149 154 156 153 152 153 148 148 147 147 146 137 146 145 143 139 127 118 107 108